カタログに戻る

FENGYUN 1C DEB

運用中SSO
NORAD 31510·DEBRIS·🇨🇳 China

打ち上げ May 10, 1999 から Taiyuan Satellite Launch Center

Loading…

次のパス (今後24時間)

TLE

最新Source: Space-Track

元期: Sep 12, 2026, 05:39 UTC

1 31510U 99025BWZ 26255.23554578  .00000565  00000-0  25776-3 0  9990
2 31510  98.5641 252.6221 0035652 251.5040 170.8272 14.25114772  3007

AllMySatでFENGYUN 1C DEBをリアルタイム追跡

Download on the App Store